This is the latest recevied weather packets stored in our database for station/object VR2R-13. If no packets are shown the sender has not sent any weather packets the latest 10 day(s).
| Time | Temp. | Humidity | Pressure | Rain* | Wind** | Luminosity | Snow |
|---|---|---|---|---|---|---|---|
| 1777518403 | 18.33° C | 84% | 916 hPa | 0 mm | - | - | - |
| 1777518283 | 18.33° C | 85% | 916 hPa | 0 mm | - | - | - |
| 1777518102 | 18.33° C | 85% | 915.9 hPa | 0 mm | - | - | - |
| 1777517923 | 18.33° C | 84% | 916 hPa | 0 mm | - | - | - |
| 1777517801 | 18.33° C | 83% | 916 hPa | 0 mm | - | - | - |
| 1777517563 | 18.89° C | 82% | 916 hPa | 0 mm | - | - | - |
| 1777517501 | 18.89° C | 82% | 916 hPa | 0 mm | - | - | - |
| 1777517203 | 18.89° C | 83% | 915.9 hPa | 0 mm | - | - | - |
| 1777517202 | 18.89° C | 83% | 915.9 hPa | 0 mm | - | - | - |
| 1777516901 | 18.89° C | 84% | 915.9 hPa | 0 mm | - | - | - |
| 1777516842 | 18.89° C | 82% | 915.9 hPa | 0 mm | - | - | - |
| 1777516482 | 17.78° C | 84% | 916 hPa | 0 mm | - | - | - |
| 1777516302 | 17.78° C | 85% | 916 hPa | 0 mm | - | - | - |
| 1777516122 | 17.22° C | 88% | 916 hPa | 0 mm | - | - | - |
| 1777516001 | 16.67° C | 86% | 916.1 hPa | 0 mm | - | - | - |
| 1777515762 | 16.11° C | 87% | 916.1 hPa | 0 mm | - | - | - |
| 1777515701 | 15.56° C | 88% | 916.2 hPa | 0 mm | - | - | - |
| 1777515403 | 16.11° C | 84% | 916.2 hPa | 0 mm | - | - | - |
| 1777515401 | 16.11° C | 84% | 916.3 hPa | 0 mm | - | - | - |
| 1777514801 | 17.22° C | 85% | 916.2 hPa | 0 mm | - | - | - |
| 1777514682 | 17.22° C | 86% | 916.2 hPa | 0 mm | - | - | - |
| 1777514501 | 16.67° C | 86% | 916.2 hPa | 0 mm | - | - | - |
| 1777514322 | 16.67° C | 86% | 916.2 hPa | 0 mm | - | - | - |
| 1777514201 | 16.67° C | 85% | 916.2 hPa | 0 mm | - | - | - |
| 1777513962 | 16.67° C | 85% | 916.2 hPa | 0 mm | - | - | - |
* Rain latest hour (hover to see other rain measurements)
** Current wind speed in m/s (hover to see current wind gust speed)